Regional Weather Roundup
Issued by NWS

Home | Current Version | Previous Version | Text Only | Print | Product List | Glossary On
Versions: 1 2 3 4 5 6 7 8 9 10 11 12 13 14 15 16 17 18 19 20 21 22 23 24 25 26 27 28 29 30 31 32 33 34 35 36 37 38 39 40 41 42 43 44 45 46 47 48 49 50
000
ASUS43 KFSD 010702
RWRSD

WEATHER ROUNDUP FOR SOUTH DAKOTA
NATIONAL WEATHER SERVICE SIOUX FALLS SD
200 AM CDT TUE SEP 01 2015

NOTE: "FAIR" INDICATES FEW OR NO CLOUDS BELOW 12,000 FEET WITH NO
SIGNIFICANT WEATHER AND/OR OBSTRUCTIONS TO VISIBILITY.


SDZ001>005-009-010-012>017-010800-
NORTHWEST AND NORTH CENTRAL SOUTH DAKOTA

CITY           SKY/WX    TMP DP  RH WIND       PRES   REMARKS
BUFFALO          N/A     59  52  77 E5        29.86S
FAITH            N/A     65  56  72 SE12      29.91F
MOBRIDGE       CLOUDY    62  60  93 E5        29.89F
$$

SDZ012>016-024>037-041>051-057-063-072>074-010800-
SOUTHWEST AND SOUTH CENTRAL SOUTH DAKOTA

CITY           SKY/WX    TMP DP  RH WIND       PRES   REMARKS
RAPID CTY ARPT PTCLDY    58  56  93 SE6       29.91F
PIERRE         PTCLDY    60  59  96 NE3       29.89F
CUSTER         CLEAR     61  46  57 SW6       30.06F
ELLSWORTH AFB  PTCLDY    63  59  87 S12       29.90F
PHILIP         PTCLDY    59  59 100 MISG      29.91S FOG
PINE RIDGE     CLEAR     63  53  70 CALM      29.94S
WINNER         FAIR      69  62  78 CALM      29.93R
$$

SDZ004>011-016>023-039-040-010800-
NORTHEAST SOUTH DAKOTA

CITY           SKY/WX    TMP DP  RH WIND       PRES   REMARKS
ABERDEEN       MOCLDY    62  59  90 CALM      29.90F
WATERTOWN      MOCLDY    67  64  90 N3        29.90F
BROOKINGS      CLOUDY    70  66  88 SE6       29.92F
$$

SDZ017-020-022-023-036>040-048>070-010800-
SOUTHEAST SOUTH DAKOTA

CITY           SKY/WX    TMP DP  RH WIND       PRES   REMARKS
SIOUX FALLS    MOCLDY    72  67  84 CALM      29.91S
HURON          MOCLDY    66  64  93 NE6       29.88F
MITCHELL       PTCLDY    68  65  90 CALM      29.89S
YANKTON        PTCLDY    68  66  94 E6        29.89R
$$

ABBREVIATIONS USED IN REMARKS
   TC - TEMPERATURE IN CELSIUS
  WCI - WIND CHILL INDEX
   HX - HEAT INDEX
  VSB - VISIBILITY




USA.gov is the U.S. government's official web portal to all federal, state and local government web resources and services.